User: anonymous   Login
Location: Unspecified
(44.0704°N, 88.6889°W)
Time: 08:47:59
(UTC+02:00)
Language:

Transit 2A - Orbit

View from above orbital plane
View from above orbital plane
View from above satellite
View from above satellite

Ground track
Ground track

The orbit data is extracted from the following two-line orbital elements,

1    45U 60007A   19291.53839609 -.00000070 +00000-0 +92153-5 0  9990
2    45 066.6937 301.0235 0250231 133.6711 228.5432 14.33652007031019
Epoch (UTC): 18 October 2019 12:55:17
Eccentricity: 0.0250231
inclination: 66.6937°
perigee height: 600 km
apogee height: 958 km
right ascension of ascending node: 301.0235°
argument of perigee: 133.6711°
revolutions per day: 14.33652007
mean anomaly at epoch: 228.5432°
orbit number at epoch: 3101

The dashed part of the orbit path shows where the satellite is in the earth's shadow,  

DLR